Tracking 35275 objects as of 8-Sep-2026
HD Live streaming from Space Station
objects crossing your sky now

OPS 6617


OPS 6617 is no longer on orbit


NORAD ID: 4264
Int'l Code: 1969-105A
Launch date: December 4, 1969
Source: United States (US)
Launch site: AIR FORCE WESTERN TEST RANGE (AFWTR)
Decay date: 1970-01-10
Your satellite tracking list
Your tracking list is empty




NASA's NSSDC Master Catalog

Two Line Element Set (TLE):
1 04264U 69105  A 70008.84463831  .01217268 +00000-0 +00000-0 0  9996
2 04264 081.4821 058.4373 0000099 301.5625 058.5612 16.35456874005687
Source of the keplerian elements: AFSPC